Miscellaneous Local Product
Issued by NWS Hastings, NE

Home | Current Version | Previous Version | Text Only | Print | Product List | Glossary Off
Versions: 1 2 3 4 5 6 7 8 9 10 11 12 13 14 15 16 17 18 19 20 21 22 23 24 25 26 27 28 29 30 31 32 33 34 35 36 37 38 39 40 41 42 43 44 45 46 47 48 49 50

059
AXUS43 KGID 130502
MISGRI

GID CWA HOURLY WEATHER ROUNDUP
NATIONAL WEATHER SERVICE HASTINGS NE
1100 PM CST FRI FEB 12 2016

NOTE: "FAIR" INDICATES FEW OR NO CLOUDS BELOW 12,000 FEET WITH NO
SIGNIFICANT WEATHER AND/OR OBSTRUCTIONS TO VISIBILITY.

...SOUTH CENTRAL NEBRASKA...

CITY           SKY/WX    TMP DP  RH WIND       PRES   REMARKS
GRAND ISLAND   CLOUDY    18   9  68 E9        30.56S WCI   7
HASTINGS       CLOUDY    19  11  70 E10       30.53F WCI   7
KEARNEY        CLOUDY    19  16  86 E10       30.51S WCI   8
ORD            CLOUDY    18  12  77 SE6       30.52S WCI  10
YORK           CLOUDY    16   9  73 E7        30.58S WCI   6
AURORA         CLOUDY    18  11  74 E6        30.56S WCI  10
LEXINGTON      CLOUDY    24  18  77 SE7       30.48S WCI  16
HOLDREGE       CLOUDY    23  18  83 E14       30.49S WCI  10
HEBRON         CLOUDY    20  14  76 NE9       30.58F WCI  10

...NEBRASKA PANHANDLE...

CITY           SKY/WX    TMP DP  RH WIND       PRES   REMARKS
CHADRON        CLOUDY    34  29  82 S13       30.26F WCI  25
ALLIANCE       CLOUDY    31  29  92 S17       30.28F WCI  19
SCOTTSBLUFF    CLOUDY    33  30  88 SE12      30.26F WCI  24
SIDNEY         FOG       30  29  96 S15       30.29F VSB 1/2 WCI  19

...WESTERN AND NORTH CENTRAL NEBRASKA...

CITY           SKY/WX    TMP DP  RH WIND       PRES   REMARKS
VALENTINE      CLOUDY    22  15  75 SE12      30.42F WCI  10
AINSWORTH      CLOUDY    20  13  73 SE10      30.45S WCI   9
ONEILL         CLOUDY    16   8  73 E6        30.53F WCI   7
BROKEN BOW     CLOUDY    20  16  84 SE10      30.47R WCI   9
IMPERIAL         N/A     30  27  88 SE15      30.37F WCI  19
NORTH PLATTE   CLOUDY    25  22  88 SE12      30.43S WCI  14
MCCOOK         FOG       26  26 100 SE12      30.45R VSB 1/4 WCI  16

...EASTERN NEBRASKA...

CITY           SKY/WX    TMP DP  RH WIND       PRES   REMARKS
NORFOLK        CLOUDY    13   3  64 NE8       30.58S WCI   2
SO SIOUX CITY  CLOUDY     9  -5  53 NE8       30.64S WCI  -3
TEKAMAH        CLOUDY    10   1  67 N6        30.66S WCI   0
COLUMBUS       CLOUDY    16   0  48 NE7       30.59F WCI   6
ALBION         CLOUDY    15   7  69 NE3       30.56S
OMAHA EPPLEY   CLOUDY    14   3  61 N10       30.65F WCI   1
OFFUTT AFB     CLOUDY    14   2  57 N7        30.63F WCI   4
MILLARD        PTCLDY    14   2  60 N5        30.64F WCI   6
LINCOLN        CLOUDY    15   5  64 NE12      30.63F WCI   2
NEBRASKA CITY  CLOUDY    15   2  57 NE12      30.61F WCI   2
BEATRICE       CLOUDY    18   9  68 NE7       30.61F WCI   8
FALLS CITY     CLOUDY    17   4  56 N8        30.62F WCI   7

...NORTHERN KANSAS...

CITY           SKY/WX    TMP DP  RH WIND       PRES   REMARKS
GOODLAND       CLOUDY    29  26  89 SE12G24   30.37F WCI  19
HILL CITY      CLOUDY    27  24  89 E13       30.48S WCI  16
NORTON         CLOUDY    25  19  80 E9        30.47R WCI  15
PHILLIPSBURG   CLOUDY    27  19  74 CALM      30.52S
SMITH CENTER   CLOUDY    23  18  80 E13       30.53F WCI  11
BELOIT         PTCLDY    25  16  68 NE8       30.55F WCI  16
HAYS           CLOUDY    28  16  59 E13       30.49F WCI  18
RUSSELL        CLOUDY    27  21  78 E12       30.50S WCI  17
CONCORDIA      CLOUDY    23  14  68 E9        30.56F WCI  13
SALINA         CLOUDY    29  12  49 NE14      30.56S WCI  18
TOPEKA         CLOUDY    23   8  52 N12       30.62R WCI  12



USA.gov is the U.S. government's official web portal to all federal, state and local government web resources and services.